QTR259 OTHH-EGLL

Flight info

Callsign QTR259
Flight time N/A
Altitude 36000
Route ULIKA M430 KSA M321 IVONU Z710 GAS G662 NIMAR L550 RUKET/N0491F380 L550 NOVPA J981 DATOK T115 DARUR Q777 RASDA DCT OTHON DCT VAXOS UN128 RDS UL609 MES DCT FSK DCT DISOR DCT LONTA UL608 DOLEV DCT IRDIV DCT PODET DCT SIMBA/N0486F400 DCT GASKA DCT MAPOX DCT OTMEC DCT ABNED L980 LOGAN
Aircraft A35K/H-SDE2E3GHIJ3J4J5LM1ORWXY/LB1D1

Departure

Time 2026-05-06 09:38
Airport Hamad International Airport (OTHH)

Arrival

Time N/A
Airport London Heathrow Airport (EGLL)
Time Latitude Longitude Altitude Speed Heading
2026-05-06 08:42 25.26151 51.61130 36 ft 0 kts 158°
2026-05-06 09:20 25.26173 51.61120 54 ft 4 kts 158°
2026-05-06 09:20 25.26193 51.61111 30 ft 4 kts 157°
2026-05-06 09:20 25.26218 51.61099 32 ft 4 kts 155°
2026-05-06 09:21 25.26242 51.61087 32 ft 4 kts 154°
2026-05-06 09:21 25.26267 51.61074 33 ft 4 kts 155°
2026-05-06 09:21 25.26286 51.61065 33 ft 4 kts 158°
2026-05-06 09:21 25.26311 51.61054 33 ft 3 kts 158°
2026-05-06 09:22 25.26316 51.61052 33 ft 0 kts 158°
2026-05-06 09:23 25.26313 51.61053 36 ft 1 kts 158°
2026-05-06 09:24 25.26296 51.61059 36 ft 3 kts 166°
2026-05-06 09:24 25.26267 51.61058 36 ft 5 kts 194°
2026-05-06 09:24 25.26236 51.61035 36 ft 6 kts 227°
2026-05-06 09:24 25.26208 51.60989 36 ft 8 kts 240°
2026-05-06 09:25 25.26181 51.60927 36 ft 10 kts 248°
2026-05-06 09:25 25.26163 51.60878 36 ft 11 kts 247°
2026-05-06 09:25 25.26131 51.60793 36 ft 13 kts 247°
2026-05-06 09:25 25.26095 51.60696 36 ft 15 kts 249°
2026-05-06 09:26 25.26057 51.60586 35 ft 16 kts 256°
2026-05-06 09:26 25.26113 51.60493 35 ft 16 kts 333°
2026-05-06 09:26 25.26205 51.60448 35 ft 10 kts 336°
2026-05-06 09:26 25.26237 51.60430 35 ft 0 kts 333°
2026-05-06 09:27 25.26246 51.60428 35 ft 4 kts 341°
2026-05-06 09:27 25.26283 51.60414 35 ft 6 kts 341°
2026-05-06 09:27 25.26331 51.60394 35 ft 8 kts 340°
2026-05-06 09:27 25.26392 51.60370 35 ft 10 kts 339°
2026-05-06 09:28 25.26463 51.60338 35 ft 12 kts 338°
2026-05-06 09:28 25.26543 51.60302 35 ft 13 kts 337°
2026-05-06 09:28 25.26634 51.60260 34 ft 15 kts 337°
2026-05-06 09:28 25.26735 51.60214 34 ft 16 kts 338°
2026-05-06 09:29 25.26845 51.60165 34 ft 17 kts 338°
2026-05-06 09:29 25.26959 51.60117 34 ft 17 kts 346°
2026-05-06 09:29 25.27046 51.60178 35 ft 15 kts 62°
2026-05-06 09:29 25.27088 51.60289 36 ft 16 kts 68°
2026-05-06 09:30 25.27131 51.60407 36 ft 17 kts 68°
2026-05-06 09:30 25.27177 51.60532 36 ft 18 kts 68°
2026-05-06 09:30 25.27225 51.60664 36 ft 19 kts 68°
2026-05-06 09:30 25.27277 51.60803 36 ft 20 kts 68°
2026-05-06 09:31 25.27330 51.60948 36 ft 21 kts 69°
2026-05-06 09:31 25.27385 51.61100 36 ft 22 kts 68°
2026-05-06 09:31 25.27443 51.61256 36 ft 23 kts 68°
2026-05-06 09:31 25.27498 51.61408 35 ft 14 kts 69°
2026-05-06 09:32 25.27510 51.61505 35 ft 9 kts 66°
2026-05-06 09:32 25.27517 51.61576 35 ft 10 kts 114°
2026-05-06 09:32 25.27460 51.61628 35 ft 11 kts 153°
2026-05-06 09:32 25.27386 51.61654 35 ft 9 kts 162°
2026-05-06 09:33 25.27323 51.61685 35 ft 11 kts 154°
2026-05-06 09:33 25.27246 51.61725 34 ft 13 kts 156°
2026-05-06 09:33 25.27154 51.61767 34 ft 15 kts 157°
2026-05-06 09:33 25.27051 51.61813 34 ft 17 kts 158°
2026-05-06 09:34 25.26939 51.61865 34 ft 18 kts 157°
2026-05-06 09:34 25.26815 51.61920 34 ft 20 kts 158°
2026-05-06 09:34 25.26683 51.61977 34 ft 21 kts 160°
2026-05-06 09:34 25.26542 51.62036 34 ft 22 kts 159°
2026-05-06 09:35 25.26395 51.62099 35 ft 23 kts 158°
2026-05-06 09:35 25.26242 51.62165 35 ft 24 kts 159°
2026-05-06 09:35 25.26086 51.62238 36 ft 25 kts 157°
2026-05-06 09:35 25.25921 51.62310 35 ft 26 kts 159°
2026-05-06 09:36 25.25749 51.62384 35 ft 27 kts 159°
2026-05-06 09:36 25.25569 51.62463 34 ft 28 kts 154°
2026-05-06 09:36 25.25569 51.62609 33 ft 21 kts 36°
2026-05-06 09:36 25.25701 51.62606 32 ft 17 kts 339°
2026-05-06 09:37 25.25769 51.62577 32 ft 0 kts 339°
2026-05-06 09:37 25.25822 51.62554 32 ft 33 kts 338°
2026-05-06 09:37 25.26254 51.62363 34 ft 98 kts 339°
2026-05-06 09:37 25.27070 51.62003 30 ft 152 kts 338°
2026-05-06 09:38 25.28180 51.61516 257 ft 182 kts 338°
2026-05-06 09:38 25.29332 51.60939 961 ft 180 kts 340°
2026-05-06 09:38 25.30529 51.60424 1431 ft 192 kts 341°
2026-05-06 09:38 25.31850 51.59871 1617 ft 215 kts 340°
2026-05-06 09:39 25.33328 51.59253 1791 ft 238 kts 343°
2026-05-06 09:39 25.35019 51.59243 2006 ft 253 kts 18°
2026-05-06 09:39 25.36687 51.59945 2540 ft 258 kts 23°
2026-05-06 09:39 25.38382 51.60639 3171 ft 262 kts 19°
2026-05-06 09:40 25.40138 51.61250 3672 ft 266 kts 17°
2026-05-06 09:40 25.41928 51.61799 3918 ft 267 kts 15°
2026-05-06 09:40 25.45518 51.62794 3959 ft 267 kts 14°
2026-05-06 09:41 25.47334 51.63277 3962 ft 268 kts 14°
2026-05-06 09:41 25.49157 51.63738 3967 ft 269 kts 13°
2026-05-06 09:41 25.50992 51.64178 3962 ft 269 kts 13°
2026-05-06 09:41 25.52817 51.64616 3960 ft 268 kts 13°
2026-05-06 09:42 25.54645 51.65056 3966 ft 269 kts 13°
2026-05-06 09:42 25.56477 51.65498 3966 ft 270 kts 13°
2026-05-06 09:42 25.58313 51.65942 3969 ft 270 kts 13°
2026-05-06 09:42 25.60141 51.66399 3970 ft 269 kts 14°
2026-05-06 09:43 25.61964 51.66866 4100 ft 269 kts 14°
2026-05-06 09:43 25.63779 51.67331 4594 ft 273 kts 13°
2026-05-06 09:43 25.65627 51.67803 5334 ft 271 kts 13°
2026-05-06 09:43 25.67477 51.68198 6041 ft 272 kts
2026-05-06 09:44 25.69378 51.68114 6584 ft 276 kts 348°
2026-05-06 09:44 25.71146 51.67283 6891 ft 279 kts 324°
2026-05-06 09:44 25.72429 51.65673 6959 ft 283 kts 297°
2026-05-06 09:44 25.72889 51.63569 6977 ft 285 kts 270°
2026-05-06 09:45 25.72402 51.61456 6973 ft 287 kts 240°
2026-05-06 09:45 25.71350 51.59569 6957 ft 289 kts 247°
2026-05-06 09:45 25.70723 51.57459 6973 ft 288 kts 255°
2026-05-06 09:45 25.70151 51.55327 6966 ft 287 kts 253°
2026-05-06 09:46 25.69531 51.53230 6967 ft 286 kts 251°
2026-05-06 09:46 25.68858 51.51156 6966 ft 286 kts 250°
2026-05-06 09:46 25.68126 51.49107 6964 ft 286 kts 248°
2026-05-06 09:46 25.67340 51.47108 6985 ft 286 kts 246°
2026-05-06 09:47 25.66477 51.45115 7257 ft 288 kts 244°
2026-05-06 09:47 25.65523 51.43153 7912 ft 288 kts 241°